TimePDT,TemperatureF,Dew PointF,Humidity,Sea Level PressureIn,VisibilityMPH,Wind Direction,Wind SpeedMPH,Gust SpeedMPH,PrecipitationIn,Events,Conditions,WindDirDegrees,DateUTC
12:53 AM,39.0,36.0,89,29.76,10.0,Calm,Calm,-,N/A,,Clear,0,2014-03-29 07:53:00
1:53 AM,36.0,33.1,89,29.76,10.0,Calm,Calm,-,N/A,,Clear,0,2014-03-29 08:53:00
2:53 AM,39.0,36.0,89,29.77,10.0,WSW,6.9,-,N/A,,Clear,250,2014-03-29 09:53:00
3:53 AM,35.1,32.0,89,29.76,10.0,West,4.6,-,N/A,,Clear,270,2014-03-29 10:53:00
4:53 AM,33.1,30.0,89,29.77,10.0,WNW,8.1,-,N/A,,Clear,290,2014-03-29 11:53:00
5:53 AM,36.0,33.1,89,29.78,10.0,NNW,5.8,-,N/A,,Partly Cloudy,330,2014-03-29 12:53:00
6:53 AM,37.0,34.0,89,29.78,10.0,NNW,5.8,-,N/A,,Clear,340,2014-03-29 13:53:00
7:53 AM,39.9,35.1,83,29.78,10.0,Variable,3.5,-,N/A,,Clear,0,2014-03-29 14:53:00
8:53 AM,46.9,37.9,71,29.77,10.0,WNW,6.9,-,N/A,,Clear,300,2014-03-29 15:53:00
9:53 AM,53.1,36.0,52,29.76,10.0,SSW,21.9,31.1,N/A,,Scattered Clouds,200,2014-03-29 16:53:00
10:53 AM,55.9,36.0,47,29.75,10.0,SSW,24.2,32.2,N/A,,Mostly Cloudy,200,2014-03-29 17:53:00
11:53 AM,57.0,35.1,44,29.73,10.0,SSW,33.4,42.6,N/A,,Clear,200,2014-03-29 18:53:00
12:53 PM,59.0,35.1,41,29.74,10.0,SSW,26.5,36.8,N/A,,Clear,200,2014-03-29 19:53:00
1:53 PM,60.1,35.1,39,29.76,10.0,SW,17.3,28.8,N/A,,Overcast,220,2014-03-29 20:53:00
2:53 PM,57.0,36.0,45,29.75,10.0,SSW,23.0,35.7,N/A,,Overcast,200,2014-03-29 21:53:00
3:31 PM,59.0,34.0,39,29.75,10.0,West,16.1,21.9,0.00,Rain,Light Rain,280,2014-03-29 22:31:00
3:53 PM,57.9,33.1,39,29.76,10.0,WSW,4.6,-,0.00,,Overcast,240,2014-03-29 22:53:00
4:53 PM,57.0,34.0,42,29.74,10.0,SW,16.1,25.3,N/A,,Mostly Cloudy,220,2014-03-29 23:53:00
5:53 PM,54.0,35.1,49,29.74,10.0,SSW,12.7,25.3,N/A,,Scattered Clouds,200,2014-03-30 00:53:00
6:53 PM,52.0,35.1,53,29.76,10.0,SSW,12.7,-,N/A,,Partly Cloudy,200,2014-03-30 01:53:00
7:53 PM,50.0,33.1,52,29.78,10.0,SW,10.4,-,N/A,,Partly Cloudy,220,2014-03-30 02:53:00
8:53 PM,48.9,32.0,52,29.79,10.0,SW,13.8,-,N/A,,Clear,220,2014-03-30 03:53:00
9:53 PM,48.0,34.0,58,29.80,10.0,SSW,16.1,24.2,N/A,,Clear,210,2014-03-30 04:53:00
10:53 PM,46.9,33.1,59,29.81,10.0,Calm,Calm,-,N/A,,Partly Cloudy,0,2014-03-30 05:53:00
11:53 PM,46.9,32.0,56,29.81,10.0,Variable,4.6,-,N/A,,Clear,0,2014-03-30 06:53:00